Location: Bottom School (historical)
(37.9078°N, 89.3593°W)
Time: 19:44:41
(UTC+00:00)

SL-4 R/B - Pass Details

Date: 09 July 2022
Orbit: 425 x 653 km, 51.6° (Epoch: 16 August)

Event Time Altitude Azimuth Distance (km) Brightness Sun altitude
Exits shadow 05:50:00 - 291° (WNW) 2,274 5.5 -29.7°
Reaches altitude 10° 05:52:47 10° 321° (NW) 1,570 5.0 -29.7°
Maximum altitude 05:54:17 12° 346° (NNW) 1,458 5.0 -29.7°
Drops below altitude 10° 05:55:48 10° 12° (NNE) 1,610 5.3 -29.7°
Sets 05:59:11 0° 43° (NE) 2,542 6.0 -29.7°
